HST,Max TemperatureF,Mean TemperatureF,Min TemperatureF,Max Dew PointF,MeanDew PointF,Min DewpointF,Max Humidity, Mean Humidity, Min Humidity, Max Sea Level PressureIn, Mean Sea Level PressureIn, Min Sea Level PressureIn, Max VisibilityMiles, Mean VisibilityMiles, Min VisibilityMiles, Max Wind SpeedMPH, Mean Wind SpeedMPH, Max Gust SpeedMPH,PrecipitationIn, CloudCover, Events, WindDirDegrees
2012-10-1,82,78,73,69,67,62,73,67,60,29.98,29.94,29.89,10,10,10,10,7,,0.00,2,,163
2012-10-2,84,80,75,70,67,64,78,68,55,29.98,29.93,29.88,10,10,10,10,5,,0.00,3,,19
2012-10-3,84,78,73,70,68,64,79,68,58,30.01,29.97,29.92,10,10,10,15,7,,0.00,1,,231
2012-10-4,86,82,78,72,69,67,79,66,58,30.03,29.98,29.94,10,10,10,13,5,,0.00,2,,239
2012-10-5,86,80,75,69,67,62,68,62,53,29.98,29.94,29.89,10,10,10,13,9,,0.00,5,,195
2012-10-6,84,81,78,70,68,66,70,66,58,29.95,29.91,29.86,10,10,10,10,5,,0.00,5,Rain,228
2012-10-7,84,80,77,70,68,66,74,67,58,29.95,29.90,29.86,10,10,10,14,7,,0.00,5,,159
2012-10-8,84,80,75,69,67,64,74,66,57,29.99,29.93,29.90,10,10,10,10,6,,0.00,2,,16
2012-10-9,87,80,73,72,68,64,74,65,48,30.06,30.01,29.96,10,10,10,14,7,,0.00,0,,350
2012-10-10,87,82,78,72,71,69,79,71,61,30.08,30.03,29.96,10,10,10,14,8,,0.00,4,,189
2012-10-11,87,82,77,72,68,59,76,66,50,30.06,30.02,29.95,10,10,10,15,5,17,0.00,4,,238
2012-10-12,86,80,75,70,65,60,74,60,49,30.09,30.05,30.00,10,10,10,14,6,,0.00,3,,185
2012-10-13,86,80,75,69,65,60,66,58,53,30.11,30.06,30.02,10,10,10,15,8,,0.00,2,,168
2012-10-14,86,80,73,68,64,58,67,56,49,30.09,30.05,30.00,10,10,10,12,7,,0.00,2,,213
2012-10-15,86,80,75,70,67,61,70,63,55,30.06,30.01,29.94,10,10,10,10,7,,0.00,3,,209
2012-10-16,86,80,75,70,68,66,74,67,57,30.00,29.96,29.92,10,10,10,16,7,,0.00,3,,221
2012-10-17,84,80,75,70,67,65,74,65,55,29.97,29.93,29.89,10,10,10,14,7,,0.00,4,Rain,312
2012-10-18,84,80,75,69,67,63,76,63,55,29.99,29.95,29.89,10,10,10,12,6,,0.00,4,,243
2012-10-19,84,78,73,68,66,62,68,62,56,29.99,29.94,29.89,10,10,10,10,5,,0.00,1,,173
2012-10-20,84,80,75,67,66,64,71,62,53,29.97,29.92,29.88,10,10,10,13,8,,0.00,3,,157
2012-10-21,84,78,73,68,66,64,76,65,53,29.96,29.92,29.88,10,10,10,9,6,,0.00,3,,187
2012-10-22,86,80,75,70,67,65,83,67,51,29.99,29.93,29.86,10,10,10,13,5,,0.00,3,Rain,136
2012-10-23,86,80,73,71,67,62,74,65,53,29.96,29.92,29.86,10,10,10,13,6,,0.00,4,,274
2012-10-24,84,81,78,73,71,69,79,71,59,29.91,29.88,29.82,10,10,10,14,6,,0.00,5,,240
2012-10-25,86,80,75,73,70,66,79,69,59,30.00,29.91,29.87,10,10,10,17,8,,0.00,3,,215
2012-10-26,86,80,75,70,68,65,72,65,57,30.05,30.00,29.95,10,10,10,12,6,,0.00,3,,8
2012-10-27,89,82,75,71,67,65,74,63,46,30.05,29.99,29.91,10,10,10,16,8,23,0.00,1,,65
2012-10-28,84,80,75,66,62,55,71,55,43,30.00,29.96,29.90,10,10,10,20,9,,0.00,3,,73
2012-10-29,84,78,73,66,64,59,71,60,51,30.03,29.97,29.92,10,10,10,15,8,17,0.00,3,,123
2012-10-30,86,80,73,67,63,58,68,59,49,30.06,30.01,29.95,10,10,10,13,7,,0.00,3,,142
2012-10-31,84,78,73,66,63,59,68,58,47,30.04,29.99,29.94,10,10,10,17,5,21,0.00,3,,189